SCP
1 1 0 0 0 0 0 0 0 0 0 0 0 0 0 0 0 0 0 0 0 0 0 0 0 0 0 0 0 0 0 0 1 1 2 2 2 2 2 2 2 1 1 0
1 0 0 0 0 0 0 0 0 0 0 0 0 0 0 0 0 0 0 0 0 0 0 0 0 0 0 0 0 0 0 0 1 1 2 2 2 2 2 2 2 1 1 1
0 0 0 0 0 0 0 0 0 0 0 0 0 0 0 0 0 0 0 0 0 0 0 0 0 0 0 0 0 0 0 0 1 1 2 2 2 2 2 2 2 2 1 1
0 0 0 0 0 0 0 0 0 0 0 0 0 0 0 0 0 0 0 0 0 0 0 0 0 0 0 0 0 0 0 0 1 1 1 2 2 2 2 2 3 2 2 1
0 0 0 0 0 0 0 0 0 0 0 0 0 0 0 0 0 0 0 0 0 0 0 0 0 0 0 0 0 0 0 0 0 0 1 1 1 1 2 2 3 3 2 2
0 0 0 0 0 0 0 0 0 0 0 0 0 0 0 0 0 0 0 0 0 0 0 0 0 0 0 0 0 0 1 0 0 0 0 1 1 1 1 2 3 3 3 3
0 0 0 0 0 0 0 0 0 0 0 0 0 0 0 0 0 0 0 0 0 0 0 0 0 0 0 0 0 0 0 1 1 1 1 0 0 1 1 1 2 3 3 3
0 0 0 0 0 0 0 0 0 0 0 0 0 0 0 0 0 0 0 0 0 0 0 0 0 0 0 0 0 0 0 0 1 1 1 1 1 1 1 1 1 2 2 3
0 0 0 0 0 0 0 0 0 0 0 0 0 0 0 0 0 0 0 0 0 0 0 0 0 0 0 0 0 0 0 0 1 1 1 1 1 1 1 1 1 1 2 2
0 0 0 0 0 0 0 0 0 0 0 0 0 0 0 0 0 0 0 0 0 0 0 0 0 0 0 0 0 0 0 0 0 1 1 1 1 1 1 1 1 1 1 2
0 0 0 0 0 0 0 0 0 0 0 0 0 0 0 0 0 0 0 0 0 0 0 0 0 0 0 0 0 0 0 0 0 0 0 1 1 1 1 1 1 1 1 1
0 0 0 0 0 0 0 0 0 0 0 0 0 0 0 0 0 0 0 0 0 0 0 0 0 0 0 0 0 0 0 0 0 0 0 0 1 1 1 1 1 1 1 1
0 0 0 0 0 0 0 0 0 0 0 0 0 0 0 0 0 0 0 0 0 0 0 0 0 0 0 0 0 0 0 0 0 0 0 0 0 0 0 1 1 0 0 0
0 0 0 0 0 0 0 0 0 0 0 0 0 0 0 0 0 0 0 0 0 0 0 0 0 0 0 0 0 0 0 0 0 0 0 0 0 0 0 0 0 0 0 0
0 0 0 0 0 0 0 0 0 0 0 0 0 0 0 0 0 0 0 0 0 0 0 0 0 0 0 0 0 0 0 0 0 0 0 0 0 0 0 0 0 0 0 0
0 0 0 0 0 0 0 0 0 0 0 0 0 0 0 0 0 0 0 0 0 0 0 0 0 0 0 0 0 0 0 0 0 0 0 0 0 0 0 0 0 0 0 0
0 0 0 0 0 0 0 0 0 0 0 0 0 0 0 0 0 0 0 0 0 0 0 0 0 0 0 0 0 0 0 0 0 0 0 0 0 0 0 0 0 0 0 0
0 0 0 0 0 0 0 0 0 0 0 0 0 0 0 0 0 0 0 0 0 0 0 0 0 0 0 0 0 0 0 0 0 0 0 0 0 0 0 0 0 0 0 0
0 0 0 0 0 0 0 0 0 0 0 0 0 0 0 0 0 0 0 0 0 0 0 0 0 0 0 0 0 0 0 0 0 0 0 0 0 0 0 0 0 0 0 0
0 0 0 0 0 0 0 0 0 0 0 0 0 0 0 0 0 0 0 0 0 0 0 0 0 0 0 0 0 0 0 0 0 0 0 0 0 0 0 0 0 0 0 0
0 0 0 0 0 0 0 0 0 0 0 0 0 0 0 0 0 0 0 0 0 0 0 0 0 0 0 0 0 0 0 0 0 0 0 0 0 0 0 0 0 0 0 0
0 0 0 0 0 0 0 0 0 0 0 0 0 0 0 0 0 0 0 0 0 0 0 0 0 0 0 0 0 0 0 0 0 0 0 0 0 0 0 0 0 0 0 0
0 0 0 0 0 0 0 0 0 0 0 0 0 0 0 0 0 0 0 0 0 0 0 0 0 0 0 0 0 0 0 0 0 0 0 0 0 0 0 0 0 0 0 0
0 0 0 0 0 0 0 0 0 0 0 0 0 0 0 0 0 0 0 0 0 0 0 0 0 0 0 0 0 0 0 0 0 0 0 0 0 0 0 0 0 0 0 0
0 0 0 0 0 0 0 0 0 0 0 0 0 0 0 0 0 0 0 0 0 0 0 0 0 0 0 0 0 0 0 0 0 0 0 0 0 0 0 0 0 0 0 0
0 0 0 0 0 0 0 0 0 0 0 0 0 0 0 0 0 0 0 0 0 0 0 0 0 0 0 0 0 0 0 0 0 0 0 0 0 0 0 0 0 0 0 0
Wind_Speed
8 9 16 18 15 6 7 8 8 7 5 7 11 13 13 10 7 9 9 9 9 11 11 9 9 10 9 9 11 12 13 12 9 7 7 8 9 7 6 7 8 10 10 10
9 19 15 8 10 9 8 8 7 4 4 5 8 13 11 11 10 10 11 11 11 11 8 8 8 8 10 11 12 12 13 12 12 10 8 5 5 5 6 6 8 10 10 11
19 9 11 10 10 14 14 12 9 5 2 3 4 10 11 10 9 10 10 10 10 12 12 10 9 10 10 11 12 12 13 13 12 11 5 3 3 3 5 7 9 10 11 11
14 8 10 13 14 15 17 10 8 7 4 5 6 9 9 9 10 12 12 11 12 12 12 10 9 9 11 12 11 12 12 11 10 10 9 11 10 11 11 8 7 8 10 11
13 11 14 17 16 14 6 8 9 8 7 7 6 8 9 6 11 12 12 12 13 12 12 11 10 10 10 9 8 9 9 9 9 10 11 11 11 11 6 6 7 8 8 11
7 6 12 12 9 11 6 5 5 5 6 16 15 10 11 9 12 9 10 12 13 11 10 9 8 6 5 4 5 5 6 7 8 9 10 12 13 11 8 8 9 8 7 8
10 8 6 7 9 8 9 8 7 9 11 13 9 11 13 9 10 12 12 13 12 9 8 7 5 4 4 3 3 4 4 5 5 7 8 10 11 11 12 10 10 9 8 8
15 13 14 9 13 13 16 14 10 9 8 5 7 13 10 8 10 10 11 10 7 7 6 5 5 4 3 3 2 2 3 2 2 3 5 6 8 7 7 9 8 8 8 8
14 11 6 10 7 13 12 13 8 3 2 3 7 7 9 6 7 9 8 6 6 6 5 4 2 2 2 2 2 2 2 1 0 1 2 3 4 6 7 6 7 7 7 6
7 7 6 7 5 8 9 10 7 9 8 9 7 7 8 6 10 9 8 7 5 3 3 2 2 2 2 2 2 2 2 1 1 1 2 2 3 4 5 5 5 6 7 6
5 7 6 9 14 15 10 11 9 7 7 8 7 9 8 10 10 10 9 7 5 4 3 3 2 2 3 3 3 3 3 2 3 3 2 3 3 3 4 4 5 6 6 6
7 5 6 9 6 8 10 12 12 10 9 7 6 9 4 6 7 7 7 4 3 3 3 3 3 3 4 4 4 4 4 4 4 3 3 3 4 4 4 5 5 5 6 6
10 7 7 5 4 6 9 11 13 9 5 6 8 9 2 1 3 4 5 4 3 3 3 3 3 3 3 3 3 4 4 4 4 4 4 4 5 5 5 6 6 6 5 5
10 7 10 14 9 9 10 11 12 12 10 11 11 10 6 3 3 3 4 4 4 4 3 3 2 2 3 3 3 3 3 3 4 4 4 5 5 5 6 6 6 6 6 6
8 8 6 6 5 8 9 12 14 15 14 11 12 13 13 9 7 6 5 5 4 3 3 3 2 2 2 2 3 3 3 4 4 4 4 5 5 5 6 6 6 6 6 6
7 7 6 6 6 7 7 12 14 15 14 12 9 12 10 6 4 4 4 5 4 4 3 2 1 1 2 2 2 3 3 4 4 4 5 5 6 6 6 7 7 6 6 6
8 7 7 6 5 4 12 15 16 13 11 12 15 16 7 6 8 8 7 6 6 4 3 2 1 1 1 1 2 2 3 4 4 4 5 6 6 6 6 7 7 7 7 6
10 8 4 4 6 13 10 8 12 15 15 14 11 10 9 9 7 4 4 6 5 4 3 2 1 1 1 2 2 3 3 3 4 4 5 6 6 7 7 6 6 7 6 6
9 9 6 6 7 8 7 6 11 13 13 12 13 11 7 6 4 2 3 4 4 3 2 2 1 1 2 3 3 3 3 3 4 4 6 6 7 7 7 6 7 6 6 6
6 7 6 6 7 10 10 6 5 7 10 10 13 12 9 9 8 8 4 4 3 2 2 2 2 2 3 4 4 3 3 4 5 6 7 7 6 6 7 7 6 5 5 5
8 7 8 7 7 9 7 3 7 10 11 6 9 10 10 9 7 4 5 5 4 3 3 3 3 3 3 4 4 3 4 5 6 7 7 6 6 6 6 6 6 5 5 5
10 8 8 7 7 11 4 6 10 7 2 3 4 5 6 5 4 4 5 5 4 3 3 3 4 4 4 5 4 4 4 6 7 7 7 7 7 6 6 6 6 5 5 5
8 8 7 8 7 1 1 3 0 1 3 2 3 4 6 5 4 5 4 4 4 3 3 3 4 4 4 5 4 4 5 6 7 6 6 6 7 6 5 5 6 5 4 4
3 2 4 3 3 2 1 2 3 3 2 2 3 4 5 6 6 5 4 4 3 3 3 3 3 3 3 4 5 4 5 6 6 6 6 6 6 6 5 4 4 4 4 4
4 3 3 3 2 2 1 2 2 3 4 5 5 4 5 6 5 4 4 3 3 3 3 3 2 2 3 4 5 5 6 6 5 5 5 5 5 5 5 4 4 5 4 4
2 4 6 5 5 5 4 3 3 4 4 4 5 5 5 5 5 5 4 3 3 3 3 3 3 3 3 4 4 5 5 5 5 4 5 4 4 4 4 5 5 7 6 8
Wind_Direction
180 196 208 206 205 200 174 185 204 212 214 203 228 240 245 246 238 240 242 242 243 242 242 236 227 219 213 208 205 205 204 203 193 193 199 206 217 216 215 216 213 211 210 207
188 218 214 187 192 206 206 208 212 238 231 214 243 251 248 241 233 231 234 237 240 245 252 244 232 218 211 210 208 206 207 203 200 204 202 200 200 211 216 217 220 218 215 212
207 208 176 179 188 204 218 215 205 210 270 261 268 272 250 248 238 240 237 236 237 236 240 240 231 223 215 214 211 209 209 207 205 202 187 181 186 211 215 220 223 221 219 217
222 214 175 187 199 196 225 207 194 201 207 242 211 264 254 235 243 239 241 243 243 242 239 238 231 226 219 219 214 212 210 208 204 195 194 196 206 218 222 221 223 219 216 219
213 187 190 203 204 190 203 172 193 206 215 244 226 249 264 219 235 237 236 239 242 241 237 235 231 226 223 219 212 212 209 208 202 197 201 205 218 227 227 217 222 223 220 221
219 190 194 202 195 187 166 149 191 207 215 240 225 226 260 212 219 228 233 237 239 240 238 236 234 224 221 213 205 204 204 211 204 201 204 209 219 224 224 223 225 226 226 225
212 219 207 170 169 179 172 168 198 209 218 237 191 213 249 215 211 215 226 236 237 235 233 233 227 217 212 200 198 196 196 213 209 204 210 216 222 224 227 229 230 228 229 229
198 210 201 190 185 185 194 188 197 205 212 234 181 222 248 223 222 225 229 233 235 233 224 220 216 206 194 177 169 169 177 202 206 207 220 225 228 229 235 235 233 231 233 234
192 214 181 192 175 169 182 204 201 179 178 221 226 254 287 242 237 239 239 234 231 225 214 208 199 176 157 143 146 158 155 171 241 249 251 248 241 238 243 245 240 240 240 238
164 190 192 176 158 198 182 165 167 199 206 227 235 231 235 222 222 225 223 219 219 202 178 149 117 96 90 95 87 83 100 144 274 295 277 276 265 259 258 256 256 253 249 243
168 171 184 171 190 190 177 183 189 192 196 204 230 246 221 212 208 207 209 204 193 177 157 132 105 81 68 54 50 48 39 24 3 343 327 324 313 299 286 274 268 264 261 252
181 168 198 211 222 197 190 194 189 202 210 205 221 253 241 209 209 192 190 185 174 150 131 116 103 80 65 54 46 43 32 20 0 352 355 349 339 334 323 307 298 291 279 267
169 172 182 202 220 199 203 204 202 199 191 203 215 252 276 189 185 180 171 170 159 137 117 95 77 70 63 51 45 42 33 19 8 9 8 2 354 346 333 323 319 314 302 291
172 188 203 210 198 177 196 204 197 196 213 220 222 238 252 230 200 193 181 177 161 147 130 106 87 72 59 48 41 37 22 15 13 12 11 3 351 343 334 330 329 325 318 308
176 201 216 226 199 173 194 201 202 209 214 218 225 228 237 222 203 196 183 170 151 147 133 127 122 94 67 47 32 23 10 8 10 9 6 353 343 341 340 339 337 332 327 320
172 187 188 225 210 196 214 211 209 214 214 219 226 239 237 222 199 195 184 173 176 177 169 155 110 79 55 30 16 8 4 3 8 6 355 348 345 343 342 338 335 333 331 327
170 166 175 217 208 201 231 211 206 213 213 206 222 234 224 210 203 200 193 183 182 186 185 175 162 122 67 27 7 359 357 1 8 3 352 347 342 338 336 334 334 333 329 327
171 171 171 175 180 225 237 204 197 209 220 215 220 225 212 205 192 181 172 173 181 183 186 193 152 82 40 32 22 13 10 11 5 358 350 343 338 333 331 332 331 328 324 323
175 171 168 180 210 247 273 219 190 197 225 217 220 224 213 182 152 225 212 175 178 183 169 161 123 79 39 28 16 21 18 10 5 353 342 335 331 327 325 324 322 322 323 321
173 166 168 175 193 222 237 220 188 175 238 220 207 210 204 179 198 221 185 146 146 135 107 88 67 62 52 24 18 27 15 4 352 339 329 324 324 320 316 313 312 315 316 313
168 176 187 191 210 244 247 216 140 183 230 207 194 199 194 198 212 171 136 128 127 109 88 80 77 67 43 24 24 24 11 353 338 330 325 325 325 317 310 308 309 311 314 313
176 175 183 177 203 237 228 158 181 210 185 146 163 179 181 174 153 136 130 127 116 99 79 74 74 58 38 29 24 16 1 343 336 332 330 328 326 322 320 317 314 313 311 310
187 188 180 190 208 215 136 172 247 114 148 163 158 154 150 152 153 141 134 125 111 98 80 64 72 64 41 27 21 8 347 341 335 333 330 327 327 327 325 321 317 318 319 314
222 166 155 184 218 188 84 40 22 40 81 84 107 122 130 138 141 138 133 122 105 84 69 60 64 62 33 16 13 359 343 341 334 329 329 331 331 332 332 326 321 318 317 314
197 163 150 189 184 124 86 57 76 78 81 76 67 77 106 125 126 127 122 108 94 75 59 51 49 43 20 8 4 356 348 343 339 334 334 333 332 331 330 330 326 319 313 315
178 172 178 201 189 185 177 140 102 98 83 89 97 80 66 94 112 109 103 91 81 69 56 52 43 32 11 1 355 351 347 345 343 341 339 335 331 330 330 328 325 332 332 338